Regional Weather Roundup
Issued by NWS

Home | Current Version | Previous Version | Graphics & Text | Print | Product List | Glossary On
Versions: 1 2 3 4 5 6 7 8 9 10 11 12 13 14 15 16 17 18 19 20 21 22 23 24 25 26 27 28 29 30 31 32 33 34 35 36 37 38 39 40 41 42 43 44 45 46 47 48 49 50
699
ASUS44 KMEG 181400
RWRTN
TENNESSEE HOURLY STATE WEATHER ROUNDUP
NATIONAL WEATHER SERVICE MEMPHIS TN
800 AM CST THU JAN 18 2018

TNZ002-004-019-021-049-052-054-088>092-181500-
WEST TENNESSEE

CITY           SKY/WX    TMP DP  RH WIND       PRES   REMARKS
MEMPHIS INTL   FAIR      16  11  80 SW6       30.56R WCI   7
NWS MEMPHIS      N/A     13 N/A N/A MISG        N/A
JACKSON        FAIR       4   1  88 S3        30.55S
DYERSBURG      FAIR      10   8  92 CALM      30.55
$$

TNZ008-025-027-028-033-062-065-066-181500-
NORTH MIDDLE TENNESSEE

CITY           SKY/WX    TMP DP  RH WIND       PRES   REMARKS
NASHVILLE      FAIR      12   8  84 SE5       30.53F WCI   4
CLARKSVILLE    FAIR       8   5  87 S3        30.51F
SMYRNA         FAIR       9   6  88 SE3       30.56F
CROSSVILLE     FAIR       8   5  87 CALM      30.43S
$$

TNZ061-075-076-078-094-096-097-181500-
SOUTH MIDDLE TENNESSEE

CITY           SKY/WX    TMP DP  RH WIND       PRES   REMARKS
WINCHESTER     SUNNY      9   5  85 CALM      30.52R
$$

TNZ017-018-042-046-047-181500-
NORTHEAST TENNESSEE

CITY           SKY/WX    TMP DP  RH WIND       PRES   REMARKS
TRI CITIES     FAIR       8   6  92 CALM      30.48R
$$

TNZ012-013-036-069-073-074-181500-
CENTRAL EAST TENNESSEE

CITY           SKY/WX    TMP DP  RH WIND       PRES   REMARKS
KNOXVILLE      FAIR      10   6  84 E3        30.51S
OAK RIDGE      MIX PCPN  11   9  92 CALM      30.54R
$$

TNZ083-085-099-181500-
SOUTHEAST TENNESSEE

CITY           SKY/WX    TMP DP  RH WIND       PRES   REMARKS
CHATTANOOGA    FAIR      17  10  74 N7        30.54R WCI   8
$$

SKY/WX REPORTED AS FAIR MEANS FEW OR NO CLOUDS BELOW
12 THOUSAND FEET.





USA.gov is the U.S. government's official web portal to all federal, state and local government web resources and services.